Погода в Некрасово

Россия / Калининградская область     54°54′06″N   20°40′36″E
темп.,
°C
ветер,
м/с
пор.,
м/с
влажн.,
%
обл.,
%
осадки,
мм/ч
давл.,
гПа
погр.,
м
26 февраля, пт
пт2623:00+5зюз78940 0.0 102196
02:00+4з915931 0.0 1021189
05:00+3з7139356 0.0 1020174
08:00+3з8158878 0.0 1020249
11:00+3з81590100 0.0 1020285
14:00+3з8159170 0.0 1020294
17:00+3з91790100 0.0 1018318
20:00+3з9169266 0.0 1018251
27 февраля, сб
сб2723:00+3зсз814910 0.0 1018207
02:00+3зсз711900 0.0 1020146
05:00+3сз7138858 0.0 1020201
08:00+2ссз7128729 0.0 1023205
11:00+2ссз815870 0.0 1025301
14:00+2ссз813880 0.0 1027276
17:00+2ссз711880 0.0 1028218
20:00+1ссз69900 0.0 1029122
28 февраля, вс
вс2823:00+1сз56910 0.0 103173
02:00+1сз459010 0.0 103152
05:00+2зсз4588100 0.0 103053
08:00+2зсз458493 0.0 103138
11:00+2зсз568534 0.0 103081
14:00+2зсз699417 0.0 1030130
17:00+2зсз68950 0.0 1030121
20:00+2сз569034 0.0 103158
1 марта, пн
пн123:00+2сз56880 0.0 103263
02:00+3сз55860 0.0 103338
05:00+3сз45850 0.0 103231
08:00+2сз45850 0.0 103329
11:00+3сз45840 0.0 103447
14:00+3зсз56850 0.0 103462
17:00+3з56860 0.0 103476
20:00+2з56860 0.0 103457
2 марта, вт
вт223:00+2з56870 0.0 103466
02:00+3з56880 0.0 103475
05:00+2з56910 0.0 103460
08:00+2з56921 0.0 103459
11:00+3з58900 0.0 1034107
14:00+3з58900 0.0 1034109
17:00+3з56890 0.0 103376
20:00+2з45890 0.0 103233